Ravenna, OH

6:40 PM EDT on April 29, 2017 (GMT -0400)
Ravenna

Weather History for KPOV - January, 2014

Change the Weather History Date:

Monday, January 6, 2014

  Actual Average (KCAK) Record (KCAK)
Temperature  
Mean Temperature 17 °F -  
Max Temperature 45 °F 33 °F 65 °F (1946)
Min Temperature -11 °F 20 °F -10 °F (2014)
Degree Days  
Heating Degree Days 48    
Moisture  
Dew Point 2 °F    
Average Humidity 76    
Maximum Humidity 100    
Minimum Humidity 57    
Precipitation  
Precipitation 0.07 in - - ()
Sea Level Pressure  
Sea Level Pressure 29.81 in    
Wind  
Wind Speed 17 mph (West)    
Max Wind Speed 30 mph    
Max Gust Speed 40 mph    
Visibility 6 miles    
Events Rain , Snow    
Averages and records for this station are not official NWS values.
T = Trace of Precipitation, MM = Missing Value Source: NWS Daily Summary

Daily Weather History Graph

Daily Weather History Graph

Search for Another Location

Airport or City:

Trip Planner

Search our weather history database for the weather conditions in past years. The results will help you decide how hot, cold, wet, or windy it might be!

Date:

Astronomy

Jan. 06, 2014 Rise Set
Actual Time 7:50 AM EST 5:11 PM EST
Civil Twilight 7:19 AM EST 5:42 PM EST
Nautical Twilight 6:45 AM EST 6:16 PM EST
Astronomical Twilight 6:11 AM EST 6:50 PM EST
Moon 11:01 AM EST (1/6) 11:47 PM EST (1/6)
Length of Visible Light 10h 22m
Length of Day
9h 20m
Waxing Crescent, 34% of the Moon is Illuminated
Jan 6
Waxing Crescent
Jan 7
First Quarter
Jan 15
Full
Jan 24
Last Quarter
Jan 30
New

Hourly Weather History & Observations

Time (EST) Temp. Windchill Dew Point Humidity Pressure Visibility Wind Dir Wind Speed Gust Speed Precip Events Conditions
12:14 AM 45.0 °F 39.7 °F 45.1 °F 100% 29.27 in 7.0 mi South 10.4 mph 19.6 mph 0.01 in Rain Light Rain
12:34 AM 39.6 °F 30.3 °F 39.7 °F 100% 29.33 in 5.0 mi West 18.4 mph 26.5 mph 0.05 in Rain Light Rain
12:55 AM 36.9 °F 29.6 °F 37.2 °F 100% 29.32 in 10.0 mi West 10.4 mph - 0.07 in Rain Rain
1:15 AM 36.1 °F 28.2 °F 36.3 °F 100% 29.31 in 10.0 mi WSW 11.5 mph - N/A   Drizzle
1:34 AM 34.2 °F 22.6 °F 34.3 °F 100% 29.36 in 10.0 mi West 20.7 mph 26.5 mph N/A Rain Rain
1:54 AM 31.5 °F 18.5 °F 31.6 °F 100% 29.39 in 2.0 mi West 23.0 mph 29.9 mph N/A Snow Light Snow
2:15 AM 30.6 °F 17.3 °F 30.6 °F 100% 29.44 in 2.5 mi West 23.0 mph 32.2 mph N/A Snow Light Snow
2:34 AM 29.3 °F 14.5 °F 29.3 °F 100% 29.45 in 5.0 mi West 27.6 mph 35.7 mph N/A Snow Light Snow
2:54 AM 26.6 °F 10.3 °F 26.6 °F 100% 29.51 in 7.0 mi West 29.9 mph 40.3 mph N/A   Overcast
3:14 AM 25.3 °F 9.7 °F 25.3 °F 100% 29.51 in 10.0 mi West 25.3 mph 31.1 mph N/A   Overcast
3:34 AM 24.8 °F 10.0 °F 24.8 °F 100% 29.55 in 10.0 mi West 21.9 mph 31.1 mph N/A   Overcast
3:55 AM 23.9 °F 8.8 °F 23.9 °F 100% 29.56 in 7.0 mi WNW 21.9 mph 31.1 mph N/A   Overcast
4:14 AM 23.0 °F 8.0 °F 22.3 °F 97% 29.59 in 4.0 mi West 20.7 mph 28.8 mph N/A Snow Light Snow
4:34 AM 22.5 °F 5.5 °F 21.0 °F 94% 29.60 in 3.0 mi West 26.5 mph 32.2 mph N/A Snow Light Snow
4:54 AM 21.9 °F 7.8 °F 20.3 °F 93% 29.63 in 3.0 mi WNW 17.3 mph 26.5 mph N/A Snow Light Snow
5:15 AM 21.2 °F 6.8 °F 20.1 °F 96% 29.66 in 2.5 mi West 17.3 mph 24.2 mph N/A Snow Light Snow
5:34 AM 20.3 °F 6.1 °F 18.3 °F 92% 29.67 in 1.8 mi West 16.1 mph 27.6 mph N/A Snow Light Snow
5:54 AM 19.8 °F 5.0 °F 16.5 °F 87% 29.69 in 1.2 mi West 17.3 mph 23.0 mph N/A Snow Light Snow
6:14 AM 19.2 °F 3.8 °F 14.9 °F 83% 29.71 in 2.0 mi West 18.4 mph 31.1 mph N/A Snow Light Snow
6:34 AM 18.9 °F 5.3 °F 15.3 °F 86% 29.72 in 1.5 mi West 13.8 mph 21.9 mph N/A Snow Light Snow
6:55 AM 17.8 °F 3.4 °F 14.0 °F 85% 29.73 in 2.0 mi West 15.0 mph 20.7 mph N/A Snow Light Snow
7:14 AM 17.4 °F 4.1 °F 13.1 °F 83% 29.74 in 4.0 mi West 12.7 mph 24.2 mph N/A Snow Light Snow
7:34 AM 17.1 °F 5.0 °F 12.4 °F 82% 29.75 in 5.0 mi West 10.4 mph 16.1 mph N/A Snow Light Snow
7:55 AM 16.9 °F 2.8 °F 12.2 °F 82% 29.77 in 5.0 mi WSW 13.8 mph 23.0 mph N/A Snow Light Snow
8:15 AM 16.3 °F 2.1 °F 11.3 °F 81% 29.78 in 4.0 mi West 13.8 mph 26.5 mph N/A Snow Light Snow
8:34 AM 16.5 °F 3.6 °F 12.0 °F 82% 29.78 in 2.5 mi West 11.5 mph 17.3 mph N/A Snow Light Snow
8:54 AM 16.5 °F 3.0 °F 12.0 °F 82% 29.79 in 2.5 mi West 12.7 mph 18.4 mph N/A Snow Light Snow
9:14 AM 15.8 °F 0.3 °F 10.6 °F 80% 29.80 in 2.5 mi West 16.1 mph 25.3 mph N/A Snow Light Snow
9:34 AM 14.0 °F -2.5 °F 9.0 °F 80% 29.81 in 0.5 mi WSW 17.3 mph 32.2 mph N/A Snow Light Snow
9:55 AM 12.7 °F -4.1 °F 7.7 °F 80% 29.82 in 1.2 mi West 17.3 mph 23.0 mph N/A Snow Light Snow
10:14 AM 10.6 °F -7.9 °F 4.3 °F 76% 29.83 in 2.5 mi West 19.6 mph 26.5 mph N/A Snow Light Snow
10:34 AM 9.0 °F -7.9 °F 2.3 °F 74% 29.84 in 2.5 mi WSW 15.0 mph 27.6 mph N/A Snow Light Snow
10:54 AM 8.4 °F -9.2 °F 2.3 °F 76% 29.84 in 2.5 mi West 16.1 mph 20.7 mph N/A Snow Light Snow
11:14 AM 6.6 °F -10.2 °F 0.3 °F 75% 29.85 in 2.0 mi WSW 13.8 mph 25.3 mph N/A   Haze
11:34 AM 5.2 °F -14.5 °F -2.0 °F 72% 29.84 in 1.5 mi West 18.4 mph 29.9 mph N/A   Haze
11:55 AM 5.7 °F -14.3 °F -1.1 °F 73% 29.84 in 3.0 mi WSW 19.6 mph 25.3 mph N/A   Haze
12:14 PM 5.0 °F -12.3 °F -2.0 °F 73% 29.84 in 3.0 mi WSW 13.8 mph 24.2 mph N/A   Haze
12:34 PM 4.8 °F -13.8 °F -2.6 °F 72% 29.84 in 2.0 mi WSW 16.1 mph 27.6 mph N/A   Haze
12:54 PM 3.7 °F -17.4 °F -4.5 °F 69% 29.85 in 4.0 mi West 20.7 mph 29.9 mph N/A   Haze
1:15 PM 3.4 °F -18.8 °F -6.2 °F 65% 29.85 in 10.0 mi West 23.0 mph 28.8 mph N/A   Mostly Cloudy
1:34 PM 2.3 °F -20.2 °F -8.3 °F 61% 29.86 in 7.0 mi WSW 23.0 mph 28.8 mph N/A   Overcast
1:54 PM 1.4 °F -19.9 °F -9.8 °F 60% 29.86 in 5.0 mi West 19.6 mph 28.8 mph N/A   Haze
2:14 PM -0.4 °F -22.3 °F -10.7 °F 62% 29.87 in 4.0 mi WSW 19.6 mph 32.2 mph N/A   Haze
2:34 PM -0.6 °F -23.6 °F -10.3 °F 64% 29.87 in 5.0 mi West 21.9 mph 29.9 mph N/A   Haze
2:54 PM -0.9 °F -25.0 °F -11.4 °F 61% 29.89 in 10.0 mi West 24.2 mph 27.6 mph N/A   Overcast
3:14 PM -1.5 °F -23.2 °F -12.3 °F 60% 29.90 in 10.0 mi West 18.4 mph 29.9 mph N/A   Overcast
3:34 PM -1.7 °F -24.0 °F -12.6 °F 60% 29.92 in 10.0 mi WSW 19.6 mph 27.6 mph N/A   Overcast
3:54 PM -2.2 °F -24.7 °F -13.4 °F 59% 29.93 in 10.0 mi West 19.6 mph 28.8 mph N/A   Overcast
4:14 PM -2.7 °F -25.4 °F -14.6 °F 57% 29.94 in 10.0 mi WSW 19.6 mph 31.1 mph N/A   Mostly Cloudy
4:34 PM -3.1 °F -21.8 °F -15.0 °F 57% 29.95 in 10.0 mi WSW 12.7 mph 25.3 mph N/A   Scattered Clouds
4:54 PM -4.2 °F -24.7 °F -15.5 °F 58% 29.96 in 10.0 mi WSW 15.0 mph 25.3 mph N/A   Clear
5:15 PM -5.1 °F -26.6 °F -15.9 °F 60% 29.97 in 10.0 mi WSW 16.1 mph 25.3 mph N/A   Clear
5:34 PM -5.8 °F -29.4 °F -15.9 °F 62% 29.98 in 10.0 mi WSW 19.6 mph 31.1 mph N/A   Scattered Clouds
5:55 PM -6.3 °F -30.6 °F -15.9 °F 63% 29.99 in 10.0 mi WSW 20.7 mph 26.5 mph N/A   Mostly Cloudy
6:14 PM -6.9 °F -28.9 °F -16.4 °F 63% 30.00 in 10.0 mi WSW 16.1 mph 26.5 mph N/A   Overcast
6:34 PM -7.6 °F -31.1 °F -17.5 °F 62% 30.00 in 10.0 mi WSW 18.4 mph 32.2 mph N/A   Overcast
6:54 PM -8.0 °F -31.6 °F -17.9 °F 62% 30.02 in 10.0 mi WSW 18.4 mph 29.9 mph N/A   Mostly Cloudy
7:14 PM -8.3 °F -33.8 °F -18.2 °F 62% 30.03 in 10.0 mi WSW 21.9 mph 32.2 mph N/A   Scattered Clouds
7:34 PM -8.5 °F -32.3 °F -17.5 °F 65% 30.04 in 10.0 mi WSW 18.4 mph 25.3 mph N/A   Mostly Cloudy
7:54 PM -9.4 °F -32.8 °F -18.8 °F 64% 30.06 in 10.0 mi WSW 17.3 mph 35.7 mph N/A   Mostly Cloudy
8:14 PM -9.6 °F -34.3 °F -18.8 °F 64% 30.07 in 10.0 mi WSW 19.6 mph 28.8 mph N/A   Mostly Cloudy
8:34 PM -9.9 °F -32.1 °F -18.9 °F 65% 30.07 in 10.0 mi WSW 15.0 mph 26.5 mph N/A   Overcast
8:55 PM -10.3 °F -31.8 °F -18.8 °F 66% 30.08 in 7.0 mi WSW 13.8 mph 23.0 mph N/A   Overcast
9:14 PM -10.5 °F -32.8 °F -19.5 °F 65% 30.09 in 7.0 mi WSW 15.0 mph 32.2 mph N/A   Overcast
9:34 PM -10.8 °F -32.5 °F -18.8 °F 68% 30.10 in 4.0 mi WSW 13.8 mph 24.2 mph N/A   Haze
9:55 PM -11.2 °F -34.4 °F -19.3 °F 67% 30.10 in 4.0 mi West 16.1 mph 26.5 mph N/A   Haze
10:14 PM -11.4 °F -38.4 °F -19.8 °F 66% 30.09 in 3.0 mi WSW 23.0 mph 32.2 mph N/A   Haze
10:34 PM -11.7 °F -36.5 °F -21.1 °F 63% 30.10 in 10.0 mi WSW 18.4 mph 29.9 mph N/A   Mostly Cloudy
10:55 PM -11.7 °F -36.5 °F -21.1 °F 63% 30.10 in 7.0 mi West 18.4 mph 27.6 mph N/A   Overcast
11:14 PM -11.9 °F -37.4 °F -21.3 °F 63% 30.10 in 10.0 mi WSW 19.6 mph 28.8 mph N/A   Scattered Clouds
11:34 PM -11.9 °F -34.6 °F -20.7 °F 65% 30.10 in 10.0 mi WSW 15.0 mph 27.6 mph N/A   Mostly Cloudy
11:54 PM -11.7 °F -35.1 °F -20.4 °F 66% 30.11 in 7.0 mi WSW 16.1 mph 28.8 mph N/A   Overcast